owner,sensor,date,latitude,longitude,vertical_datum,sea_water_temperature,qcFlag 
DISL,ioos:station:DISL:MBLA:1,2010-06-02T00:03:00Z,30.4367,-88.0117,0.5,24.93,2 
DISL,ioos:station:DISL:MBLA:1,2010-06-02T00:05:00Z,30.4367,-88.0117,0.5,25.14,2 
DISL,ioos:station:DISL:MBLA:1,2010-06-02T00:07:00Z,30.4367,-88.0117,0.5,25.36,2 
DISL,ioos:station:DISL:MBLA:1,2010-06-02T00:10:00Z,30.4367,-88.0117,0.5,25.52,2 
DISL,ioos:station:DISL:MBLA:1,2010-06-02T00:12:00Z,30.4367,-88.0117,0.5,25.54,2 
DISL,ioos:station:DISL:MBLA:1,2010-06-02T00:15:00Z,30.4367,-88.0117,0.5,25.63,2 
DISL,ioos:station:DISL:MBLA:1,2010-06-02T01:03:00Z,30.4367,-88.0117,0.5,24.75,2 
DISL,ioos:station:DISL:MBLA:1,2010-06-02T01:05:00Z,30.4367,-88.0117,0.5,24.94,2 
DISL,ioos:station:DISL:MBLA:1,2010-06-02T01:07:00Z,30.4367,-88.0117,0.5,25.08,2 
DISL,ioos:station:DISL:MBLA:1,2010-06-02T01:10:00Z,30.4367,-88.0117,0.5,25.33,2 
DISL,ioos:station:DISL:MBLA:1,2010-06-02T01:13:00Z,30.4367,-88.0117,0.5,25.47,2 
DISL,ioos:station:DISL:MBLA:1,2010-06-02T01:15:00Z,30.4367,-88.0117,0.5,25.48,2 
DISL,ioos:station:DISL:MBLA:1,2010-06-02T02:03:00Z,30.4367,-88.0117,0.5,24.85,2 
DISL,ioos:station:DISL:MBLA:1,2010-06-02T02:05:00Z,30.4367,-88.0117,0.5,24.89,2 
DISL,ioos:station:DISL:MBLA:1,2010-06-02T02:07:00Z,30.4367,-88.0117,0.5,25.05,2 
DISL,ioos:station:DISL:MBLA:1,2010-06-02T02:10:00Z,30.4367,-88.0117,0.5,25.28,2 
DISL,ioos:station:DISL:MBLA:1,2010-06-02T02:12:00Z,30.4367,-88.0117,0.5,25.31,2 
DISL,ioos:station:DISL:MBLA:1,2010-06-02T02:15:00Z,30.4367,-88.0117,0.5,25.32,2 
DISL,ioos:station:DISL:MBLA:1,2010-06-02T03:03:00Z,30.4367,-88.0117,0.5,24.54,2 
DISL,ioos:station:DISL:MBLA:1,2010-06-02T03:05:00Z,30.4367,-88.0117,0.5,24.84,2 
DISL,ioos:station:DISL:MBLA:1,2010-06-02T03:08:00Z,30.4367,-88.0117,0.5,25.0,2 
DISL,ioos:station:DISL:MBLA:1,2010-06-02T03:10:00Z,30.4367,-88.0117,0.5,25.17,2 
DISL,ioos:station:DISL:MBLA:1,2010-06-02T03:13:00Z,30.4367,-88.0117,0.5,25.19,2 
DISL,ioos:station:DISL:MBLA:1,2010-06-02T03:15:00Z,30.4367,-88.0117,0.5,25.18,2 
DISL,ioos:station:DISL:MBLA:1,2010-06-02T04:03:00Z,30.4367,-88.0117,0.5,24.71,2 
DISL,ioos:station:DISL:MBLA:1,2010-06-02T04:05:00Z,30.4367,-88.0117,0.5,24.77,2 
DISL,ioos:station:DISL:MBLA:1,2010-06-02T04:07:00Z,30.4367,-88.0117,0.5,24.95,2 
DISL,ioos:station:DISL:MBLA:1,2010-06-02T04:10:00Z,30.4367,-88.0117,0.5,25.05,2 
DISL,ioos:station:DISL:MBLA:1,2010-06-02T04:12:00Z,30.4367,-88.0117,0.5,25.07,2 
DISL,ioos:station:DISL:MBLA:1,2010-06-02T04:15:00Z,30.4367,-88.0117,0.5,25.07,2 
DISL,ioos:station:DISL:MBLA:1,2010-06-02T05:03:00Z,30.4367,-88.0117,0.5,24.64,2 
DISL,ioos:station:DISL:MBLA:1,2010-06-02T05:05:00Z,30.4367,-88.0117,0.5,24.75,2 
DISL,ioos:station:DISL:MBLA:1,2010-06-02T05:07:00Z,30.4367,-88.0117,0.5,25.0,2 
DISL,ioos:station:DISL:MBLA:1,2010-06-02T05:10:00Z,30.4367,-88.0117,0.5,25.03,2 
DISL,ioos:station:DISL:MBLA:1,2010-06-02T05:12:00Z,30.4367,-88.0117,0.5,25.04,2 
DISL,ioos:station:DISL:MBLA:1,2010-06-02T05:15:00Z,30.4367,-88.0117,0.5,25.07,2 
DISL,ioos:station:DISL:MBLA:1,2010-06-02T06:03:00Z,30.4367,-88.0117,0.5,24.63,2 
DISL,ioos:station:DISL:MBLA:1,2010-06-02T06:05:00Z,30.4367,-88.0117,0.5,24.74,2 
DISL,ioos:station:DISL:MBLA:1,2010-06-02T06:07:00Z,30.4367,-88.0117,0.5,24.88,2 
DISL,ioos:station:DISL:MBLA:1,2010-06-02T06:10:00Z,30.4367,-88.0117,0.5,25.11,2 
DISL,ioos:station:DISL:MBLA:1,2010-06-02T06:12:00Z,30.4367,-88.0117,0.5,25.13,2 
DISL,ioos:station:DISL:MBLA:1,2010-06-02T06:15:00Z,30.4367,-88.0117,0.5,25.13,2 
DISL,ioos:station:DISL:MBLA:1,2010-06-02T07:02:00Z,30.4367,-88.0117,0.5,24.53,2 
DISL,ioos:station:DISL:MBLA:1,2010-06-02T07:05:00Z,30.4367,-88.0117,0.5,24.65,2 
DISL,ioos:station:DISL:MBLA:1,2010-06-02T07:07:00Z,30.4367,-88.0117,0.5,24.85,2 
DISL,ioos:station:DISL:MBLA:1,2010-06-02T07:10:00Z,30.4367,-88.0117,0.5,25.05,2 
DISL,ioos:station:DISL:MBLA:1,2010-06-02T07:12:00Z,30.4367,-88.0117,0.5,25.07,2 
DISL,ioos:station:DISL:MBLA:1,2010-06-02T07:15:00Z,30.4367,-88.0117,0.5,25.07,2 
DISL,ioos:station:DISL:MBLA:1,2010-06-02T08:03:00Z,30.4367,-88.0117,0.5,24.61,2 
DISL,ioos:station:DISL:MBLA:1,2010-06-02T08:05:00Z,30.4367,-88.0117,0.5,24.66,2 
DISL,ioos:station:DISL:MBLA:1,2010-06-02T08:07:00Z,30.4367,-88.0117,0.5,24.71,2 
DISL,ioos:station:DISL:MBLA:1,2010-06-02T08:10:00Z,30.4367,-88.0117,0.5,24.81,2 
DISL,ioos:station:DISL:MBLA:1,2010-06-02T08:12:00Z,30.4367,-88.0117,0.5,24.83,2 
DISL,ioos:station:DISL:MBLA:1,2010-06-02T08:15:00Z,30.4367,-88.0117,0.5,24.82,2 
DISL,ioos:station:DISL:MBLA:1,2010-06-02T09:02:00Z,30.4367,-88.0117,0.5,24.54,2 
DISL,ioos:station:DISL:MBLA:1,2010-06-02T09:05:00Z,30.4367,-88.0117,0.5,24.64,2 
DISL,ioos:station:DISL:MBLA:1,2010-06-02T09:07:00Z,30.4367,-88.0117,0.5,24.74,2 
DISL,ioos:station:DISL:MBLA:1,2010-06-02T09:10:00Z,30.4367,-88.0117,0.5,24.78,2 
DISL,ioos:station:DISL:MBLA:1,2010-06-02T09:12:00Z,30.4367,-88.0117,0.5,24.81,2 
DISL,ioos:station:DISL:MBLA:1,2010-06-02T09:15:00Z,30.4367,-88.0117,0.5,24.8,2 
DISL,ioos:station:DISL:MBLA:1,2010-06-02T10:03:00Z,30.4367,-88.0117,0.5,24.62,2 
DISL,ioos:station:DISL:MBLA:1,2010-06-02T10:05:00Z,30.4367,-88.0117,0.5,24.67,2 
DISL,ioos:station:DISL:MBLA:1,2010-06-02T10:07:00Z,30.4367,-88.0117,0.5,24.77,2 
DISL,ioos:station:DISL:MBLA:1,2010-06-02T10:10:00Z,30.4367,-88.0117,0.5,24.77,2 
DISL,ioos:station:DISL:MBLA:1,2010-06-02T10:12:00Z,30.4367,-88.0117,0.5,24.76,2 
DISL,ioos:station:DISL:MBLA:1,2010-06-02T10:15:00Z,30.4367,-88.0117,0.5,24.75,2 
DISL,ioos:station:DISL:MBLA:1,2010-06-02T11:02:00Z,30.4367,-88.0117,0.5,24.53,2 
DISL,ioos:station:DISL:MBLA:1,2010-06-02T11:05:00Z,30.4367,-88.0117,0.5,24.73,2 
DISL,ioos:station:DISL:MBLA:1,2010-06-02T11:07:00Z,30.4367,-88.0117,0.5,24.76,2 
DISL,ioos:station:DISL:MBLA:1,2010-06-02T11:10:00Z,30.4367,-88.0117,0.5,24.78,2 
DISL,ioos:station:DISL:MBLA:1,2010-06-02T11:12:00Z,30.4367,-88.0117,0.5,24.76,2 
DISL,ioos:station:DISL:MBLA:1,2010-06-02T11:15:00Z,30.4367,-88.0117,0.5,24.74,2 
DISL,ioos:station:DISL:MBLA:1,2010-06-02T12:03:00Z,30.4367,-88.0117,0.5,24.58,2 
DISL,ioos:station:DISL:MBLA:1,2010-06-02T12:05:00Z,30.4367,-88.0117,0.5,24.69,2 
DISL,ioos:station:DISL:MBLA:1,2010-06-02T12:07:00Z,30.4367,-88.0117,0.5,24.73,2 
DISL,ioos:station:DISL:MBLA:1,2010-06-02T12:10:00Z,30.4367,-88.0117,0.5,24.78,2 
DISL,ioos:station:DISL:MBLA:1,2010-06-02T12:12:00Z,30.4367,-88.0117,0.5,24.76,2 
DISL,ioos:station:DISL:MBLA:1,2010-06-02T12:15:00Z,30.4367,-88.0117,0.5,24.75,2 
DISL,ioos:station:DISL:MBLA:1,2010-06-02T13:03:00Z,30.4367,-88.0117,0.5,24.68,2 
DISL,ioos:station:DISL:MBLA:1,2010-06-02T13:05:00Z,30.4367,-88.0117,0.5,24.57,2 
DISL,ioos:station:DISL:MBLA:1,2010-06-02T13:07:00Z,30.4367,-88.0117,0.5,24.76,2 
DISL,ioos:station:DISL:MBLA:1,2010-06-02T13:10:00Z,30.4367,-88.0117,0.5,24.77,2 
DISL,ioos:station:DISL:MBLA:1,2010-06-02T13:12:00Z,30.4367,-88.0117,0.5,24.75,2 
DISL,ioos:station:DISL:MBLA:1,2010-06-02T13:15:00Z,30.4367,-88.0117,0.5,24.73,2 
DISL,ioos:station:DISL:MBLA:1,2010-06-02T14:02:00Z,30.4367,-88.0117,0.5,24.41,2 
DISL,ioos:station:DISL:MBLA:1,2010-06-02T14:05:00Z,30.4367,-88.0117,0.5,24.71,2 
DISL,ioos:station:DISL:MBLA:1,2010-06-02T14:07:00Z,30.4367,-88.0117,0.5,24.74,2 
DISL,ioos:station:DISL:MBLA:1,2010-06-02T14:10:00Z,30.4367,-88.0117,0.5,24.7,2 
DISL,ioos:station:DISL:MBLA:1,2010-06-02T14:12:00Z,30.4367,-88.0117,0.5,24.68,2 
DISL,ioos:station:DISL:MBLA:1,2010-06-02T14:15:00Z,30.4367,-88.0117,0.5,24.68,2 
DISL,ioos:station:DISL:MBLA:1,2010-06-02T15:03:00Z,30.4367,-88.0117,0.5,24.44,2 
DISL,ioos:station:DISL:MBLA:1,2010-06-02T15:05:00Z,30.4367,-88.0117,0.5,24.56,2 
DISL,ioos:station:DISL:MBLA:1,2010-06-02T15:07:00Z,30.4367,-88.0117,0.5,24.68,2 
DISL,ioos:station:DISL:MBLA:1,2010-06-02T15:10:00Z,30.4367,-88.0117,0.5,24.66,2 
DISL,ioos:station:DISL:MBLA:1,2010-06-02T15:12:00Z,30.4367,-88.0117,0.5,24.65,2 
DISL,ioos:station:DISL:MBLA:1,2010-06-02T15:15:00Z,30.4367,-88.0117,0.5,24.65,2 
DISL,ioos:station:DISL:MBLA:1,2010-06-02T16:03:00Z,30.4367,-88.0117,0.5,24.58,2 
DISL,ioos:station:DISL:MBLA:1,2010-06-02T16:05:00Z,30.4367,-88.0117,0.5,24.76,2 
DISL,ioos:station:DISL:MBLA:1,2010-06-02T16:07:00Z,30.4367,-88.0117,0.5,24.76,2 
DISL,ioos:station:DISL:MBLA:1,2010-06-02T16:10:00Z,30.4367,-88.0117,0.5,24.7,2 
DISL,ioos:station:DISL:MBLA:1,2010-06-02T16:12:00Z,30.4367,-88.0117,0.5,24.7,2 
DISL,ioos:station:DISL:MBLA:1,2010-06-02T16:15:00Z,30.4367,-88.0117,0.5,24.71,2 
DISL,ioos:station:DISL:MBLA:1,2010-06-02T17:03:00Z,30.4367,-88.0117,0.5,24.58,2 
DISL,ioos:station:DISL:MBLA:1,2010-06-02T17:05:00Z,30.4367,-88.0117,0.5,24.79,2 
DISL,ioos:station:DISL:MBLA:1,2010-06-02T17:07:00Z,30.4367,-88.0117,0.5,24.79,2 
DISL,ioos:station:DISL:MBLA:1,2010-06-02T17:10:00Z,30.4367,-88.0117,0.5,24.8,2 
DISL,ioos:station:DISL:MBLA:1,2010-06-02T17:12:00Z,30.4367,-88.0117,0.5,24.95,2 
DISL,ioos:station:DISL:MBLA:1,2010-06-02T17:15:00Z,30.4367,-88.0117,0.5,25.1,2 
DISL,ioos:station:DISL:MBLA:1,2010-06-02T18:02:00Z,30.4367,-88.0117,0.5,24.57,2 
DISL,ioos:station:DISL:MBLA:1,2010-06-02T18:05:00Z,30.4367,-88.0117,0.5,24.8,2 
DISL,ioos:station:DISL:MBLA:1,2010-06-02T18:07:00Z,30.4367,-88.0117,0.5,24.95,2 
DISL,ioos:station:DISL:MBLA:1,2010-06-02T18:10:00Z,30.4367,-88.0117,0.5,25.23,2 
DISL,ioos:station:DISL:MBLA:1,2010-06-02T18:12:00Z,30.4367,-88.0117,0.5,25.36,2 
DISL,ioos:station:DISL:MBLA:1,2010-06-02T18:15:00Z,30.4367,-88.0117,0.5,25.49,2 
DISL,ioos:station:DISL:MBLA:1,2010-06-02T19:03:00Z,30.4367,-88.0117,0.5,24.65,2 
DISL,ioos:station:DISL:MBLA:1,2010-06-02T19:05:00Z,30.4367,-88.0117,0.5,24.92,2 
DISL,ioos:station:DISL:MBLA:1,2010-06-02T19:07:00Z,30.4367,-88.0117,0.5,25.35,2 
DISL,ioos:station:DISL:MBLA:1,2010-06-02T19:10:00Z,30.4367,-88.0117,0.5,25.27,2 
DISL,ioos:station:DISL:MBLA:1,2010-06-02T19:12:00Z,30.4367,-88.0117,0.5,25.53,2 
DISL,ioos:station:DISL:MBLA:1,2010-06-02T19:15:00Z,30.4367,-88.0117,0.5,25.58,2 
DISL,ioos:station:DISL:MBLA:1,2010-06-02T20:02:00Z,30.4367,-88.0117,0.5,24.75,2 
DISL,ioos:station:DISL:MBLA:1,2010-06-02T20:05:00Z,30.4367,-88.0117,0.5,24.94,2 
DISL,ioos:station:DISL:MBLA:1,2010-06-02T20:08:00Z,30.4367,-88.0117,0.5,25.21,2 
DISL,ioos:station:DISL:MBLA:1,2010-06-02T20:10:00Z,30.4367,-88.0117,0.5,25.65,2 
DISL,ioos:station:DISL:MBLA:1,2010-06-02T20:13:00Z,30.4367,-88.0117,0.5,25.74,2 
DISL,ioos:station:DISL:MBLA:1,2010-06-02T20:15:00Z,30.4367,-88.0117,0.5,25.77,2 
DISL,ioos:station:DISL:MBLA:1,2010-06-02T21:03:00Z,30.4367,-88.0117,0.5,24.8,2 
DISL,ioos:station:DISL:MBLA:1,2010-06-02T21:05:00Z,30.4367,-88.0117,0.5,25.08,2 
DISL,ioos:station:DISL:MBLA:1,2010-06-02T21:07:00Z,30.4367,-88.0117,0.5,25.43,2 
DISL,ioos:station:DISL:MBLA:1,2010-06-02T21:10:00Z,30.4367,-88.0117,0.5,25.71,2 
DISL,ioos:station:DISL:MBLA:1,2010-06-02T21:13:00Z,30.4367,-88.0117,0.5,25.79,2 
DISL,ioos:station:DISL:MBLA:1,2010-06-02T21:15:00Z,30.4367,-88.0117,0.5,25.78,2 
DISL,ioos:station:DISL:MBLA:1,2010-06-02T22:03:00Z,30.4367,-88.0117,0.5,24.48,2 
DISL,ioos:station:DISL:MBLA:1,2010-06-02T22:05:00Z,30.4367,-88.0117,0.5,25.33,2 
DISL,ioos:station:DISL:MBLA:1,2010-06-02T22:07:00Z,30.4367,-88.0117,0.5,25.38,2 
DISL,ioos:station:DISL:MBLA:1,2010-06-02T22:11:00Z,30.4367,-88.0117,0.5,25.49,2 
DISL,ioos:station:DISL:MBLA:1,2010-06-02T22:13:00Z,30.4367,-88.0117,0.5,25.48,2 
DISL,ioos:station:DISL:MBLA:1,2010-06-02T22:16:00Z,30.4367,-88.0117,0.5,25.51,2 
DISL,ioos:station:DISL:MBLA:1,2010-06-02T23:03:00Z,30.4367,-88.0117,0.5,25.29,2 
DISL,ioos:station:DISL:MBLA:1,2010-06-02T23:05:00Z,30.4367,-88.0117,0.5,25.58,2 
DISL,ioos:station:DISL:MBLA:1,2010-06-02T23:07:00Z,30.4367,-88.0117,0.5,25.66,2 
DISL,ioos:station:DISL:MBLA:1,2010-06-02T23:10:00Z,30.4367,-88.0117,0.5,25.81,2 
DISL,ioos:station:DISL:MBLA:1,2010-06-02T23:13:00Z,30.4367,-88.0117,0.5,25.88,2 
DISL,ioos:station:DISL:MBLA:1,2010-06-02T23:16:00Z,30.4367,-88.0117,0.5,25.89,2 
DISL,ioos:station:DISL:MBLA:1,2010-06-03T00:03:00Z,30.4367,-88.0117,0.5,25.27,2 
DISL,ioos:station:DISL:MBLA:1,2010-06-03T00:05:00Z,30.4367,-88.0117,0.5,25.57,2 
DISL,ioos:station:DISL:MBLA:1,2010-06-03T00:07:00Z,30.4367,-88.0117,0.5,25.63,2 
DISL,ioos:station:DISL:MBLA:1,2010-06-03T00:10:00Z,30.4367,-88.0117,0.5,25.66,2 
DISL,ioos:station:DISL:MBLA:1,2010-06-03T00:12:00Z,30.4367,-88.0117,0.5,25.64,2 
DISL,ioos:station:DISL:MBLA:1,2010-06-03T00:15:00Z,30.4367,-88.0117,0.5,25.63,2 
DISL,ioos:station:DISL:MBLA:1,2010-06-03T01:03:00Z,30.4367,-88.0117,0.5,25.23,2 
DISL,ioos:station:DISL:MBLA:1,2010-06-03T01:05:00Z,30.4367,-88.0117,0.5,25.47,2 
DISL,ioos:station:DISL:MBLA:1,2010-06-03T01:07:00Z,30.4367,-88.0117,0.5,25.56,2 
DISL,ioos:station:DISL:MBLA:1,2010-06-03T01:10:00Z,30.4367,-88.0117,0.5,25.57,2 
DISL,ioos:station:DISL:MBLA:1,2010-06-03T01:12:00Z,30.4367,-88.0117,0.5,25.54,2 
DISL,ioos:station:DISL:MBLA:1,2010-06-03T01:15:00Z,30.4367,-88.0117,0.5,25.49,2 
DISL,ioos:station:DISL:MBLA:1,2010-06-03T02:03:00Z,30.4367,-88.0117,0.5,24.57,2 
DISL,ioos:station:DISL:MBLA:1,2010-06-03T02:05:00Z,30.4367,-88.0117,0.5,25.25,2 
DISL,ioos:station:DISL:MBLA:1,2010-06-03T02:07:00Z,30.4367,-88.0117,0.5,25.41,2 
DISL,ioos:station:DISL:MBLA:1,2010-06-03T02:10:00Z,30.4367,-88.0117,0.5,25.42,2 
DISL,ioos:station:DISL:MBLA:1,2010-06-03T02:12:00Z,30.4367,-88.0117,0.5,25.42,2 
DISL,ioos:station:DISL:MBLA:1,2010-06-03T02:15:00Z,30.4367,-88.0117,0.5,25.43,2 
DISL,ioos:station:DISL:MBLA:1,2010-06-03T03:03:00Z,30.4367,-88.0117,0.5,24.73,2 
DISL,ioos:station:DISL:MBLA:1,2010-06-03T03:05:00Z,30.4367,-88.0117,0.5,25.13,2 
DISL,ioos:station:DISL:MBLA:1,2010-06-03T03:07:00Z,30.4367,-88.0117,0.5,25.36,2 
DISL,ioos:station:DISL:MBLA:1,2010-06-03T03:10:00Z,30.4367,-88.0117,0.5,25.4,2 
DISL,ioos:station:DISL:MBLA:1,2010-06-03T03:12:00Z,30.4367,-88.0117,0.5,25.41,2 
DISL,ioos:station:DISL:MBLA:1,2010-06-03T03:15:00Z,30.4367,-88.0117,0.5,25.44,2 
DISL,ioos:station:DISL:MBLA:1,2010-06-03T04:03:00Z,30.4367,-88.0117,0.5,24.63,2 
DISL,ioos:station:DISL:MBLA:1,2010-06-03T04:05:00Z,30.4367,-88.0117,0.5,24.83,2 
DISL,ioos:station:DISL:MBLA:1,2010-06-03T04:07:00Z,30.4367,-88.0117,0.5,25.32,2 
DISL,ioos:station:DISL:MBLA:1,2010-06-03T04:10:00Z,30.4367,-88.0117,0.5,25.32,2 
DISL,ioos:station:DISL:MBLA:1,2010-06-03T04:12:00Z,30.4367,-88.0117,0.5,25.28,2 
DISL,ioos:station:DISL:MBLA:1,2010-06-03T04:15:00Z,30.4367,-88.0117,0.5,25.27,2 
DISL,ioos:station:DISL:MBLA:1,2010-06-03T05:03:00Z,30.4367,-88.0117,0.5,24.93,2 
DISL,ioos:station:DISL:MBLA:1,2010-06-03T05:05:00Z,30.4367,-88.0117,0.5,24.95,2 
DISL,ioos:station:DISL:MBLA:1,2010-06-03T05:07:00Z,30.4367,-88.0117,0.5,25.16,2 
DISL,ioos:station:DISL:MBLA:1,2010-06-03T05:10:00Z,30.4367,-88.0117,0.5,25.17,2 
DISL,ioos:station:DISL:MBLA:1,2010-06-03T05:12:00Z,30.4367,-88.0117,0.5,25.15,2 
DISL,ioos:station:DISL:MBLA:1,2010-06-03T05:15:00Z,30.4367,-88.0117,0.5,25.15,2 
DISL,ioos:station:DISL:MBLA:1,2010-06-03T06:03:00Z,30.4367,-88.0117,0.5,24.49,2 
DISL,ioos:station:DISL:MBLA:1,2010-06-03T06:05:00Z,30.4367,-88.0117,0.5,25.01,2 
DISL,ioos:station:DISL:MBLA:1,2010-06-03T06:07:00Z,30.4367,-88.0117,0.5,25.08,2 
DISL,ioos:station:DISL:MBLA:1,2010-06-03T06:10:00Z,30.4367,-88.0117,0.5,25.08,2 
DISL,ioos:station:DISL:MBLA:1,2010-06-03T06:12:00Z,30.4367,-88.0117,0.5,25.08,2 
DISL,ioos:station:DISL:MBLA:1,2010-06-03T06:15:00Z,30.4367,-88.0117,0.5,25.07,2 
DISL,ioos:station:DISL:MBLA:1,2010-06-03T07:03:00Z,30.4367,-88.0117,0.5,24.55,2 
DISL,ioos:station:DISL:MBLA:1,2010-06-03T07:05:00Z,30.4367,-88.0117,0.5,24.93,2 
DISL,ioos:station:DISL:MBLA:1,2010-06-03T07:07:00Z,30.4367,-88.0117,0.5,24.97,2 
DISL,ioos:station:DISL:MBLA:1,2010-06-03T07:10:00Z,30.4367,-88.0117,0.5,24.97,2 
DISL,ioos:station:DISL:MBLA:1,2010-06-03T07:12:00Z,30.4367,-88.0117,0.5,24.97,2 
DISL,ioos:station:DISL:MBLA:1,2010-06-03T07:15:00Z,30.4367,-88.0117,0.5,24.96,2 
DISL,ioos:station:DISL:MBLA:1,2010-06-03T08:03:00Z,30.4367,-88.0117,0.5,24.65,2 
DISL,ioos:station:DISL:MBLA:1,2010-06-03T08:05:00Z,30.4367,-88.0117,0.5,24.76,2 
DISL,ioos:station:DISL:MBLA:1,2010-06-03T08:08:00Z,30.4367,-88.0117,0.5,24.9,2 
DISL,ioos:station:DISL:MBLA:1,2010-06-03T08:10:00Z,30.4367,-88.0117,0.5,24.91,2 
DISL,ioos:station:DISL:MBLA:1,2010-06-03T08:13:00Z,30.4367,-88.0117,0.5,24.89,2 
DISL,ioos:station:DISL:MBLA:1,2010-06-03T08:15:00Z,30.4367,-88.0117,0.5,24.9,2 
DISL,ioos:station:DISL:MBLA:1,2010-06-03T09:02:00Z,30.4367,-88.0117,0.5,24.66,2 
DISL,ioos:station:DISL:MBLA:1,2010-06-03T09:05:00Z,30.4367,-88.0117,0.5,24.79,2 
DISL,ioos:station:DISL:MBLA:1,2010-06-03T09:07:00Z,30.4367,-88.0117,0.5,24.84,2 
DISL,ioos:station:DISL:MBLA:1,2010-06-03T09:10:00Z,30.4367,-88.0117,0.5,24.87,2 
DISL,ioos:station:DISL:MBLA:1,2010-06-03T09:12:00Z,30.4367,-88.0117,0.5,24.86,2 
DISL,ioos:station:DISL:MBLA:1,2010-06-03T09:15:00Z,30.4367,-88.0117,0.5,24.86,2 
DISL,ioos:station:DISL:MBLA:1,2010-06-03T10:03:00Z,30.4367,-88.0117,0.5,24.73,2 
DISL,ioos:station:DISL:MBLA:1,2010-06-03T10:05:00Z,30.4367,-88.0117,0.5,24.81,2 
DISL,ioos:station:DISL:MBLA:1,2010-06-03T10:07:00Z,30.4367,-88.0117,0.5,24.85,2 
DISL,ioos:station:DISL:MBLA:1,2010-06-03T10:10:00Z,30.4367,-88.0117,0.5,24.86,2 
DISL,ioos:station:DISL:MBLA:1,2010-06-03T10:12:00Z,30.4367,-88.0117,0.5,24.85,2 
DISL,ioos:station:DISL:MBLA:1,2010-06-03T10:15:00Z,30.4367,-88.0117,0.5,24.85,2 
DISL,ioos:station:DISL:MBLA:1,2010-06-03T11:03:00Z,30.4367,-88.0117,0.5,24.59,2 
DISL,ioos:station:DISL:MBLA:1,2010-06-03T11:05:00Z,30.4367,-88.0117,0.5,24.82,2 
DISL,ioos:station:DISL:MBLA:1,2010-06-03T11:07:00Z,30.4367,-88.0117,0.5,24.86,2 
DISL,ioos:station:DISL:MBLA:1,2010-06-03T11:10:00Z,30.4367,-88.0117,0.5,24.88,2 
DISL,ioos:station:DISL:MBLA:1,2010-06-03T11:12:00Z,30.4367,-88.0117,0.5,24.89,2 
DISL,ioos:station:DISL:MBLA:1,2010-06-03T11:15:00Z,30.4367,-88.0117,0.5,24.89,2 
DISL,ioos:station:DISL:MBLA:1,2010-06-03T12:03:00Z,30.4367,-88.0117,0.5,24.75,2 
DISL,ioos:station:DISL:MBLA:1,2010-06-03T12:05:00Z,30.4367,-88.0117,0.5,24.84,2 
DISL,ioos:station:DISL:MBLA:1,2010-06-03T12:07:00Z,30.4367,-88.0117,0.5,24.89,2 
DISL,ioos:station:DISL:MBLA:1,2010-06-03T12:10:00Z,30.4367,-88.0117,0.5,24.92,2 
DISL,ioos:station:DISL:MBLA:1,2010-06-03T12:12:00Z,30.4367,-88.0117,0.5,24.93,2 
DISL,ioos:station:DISL:MBLA:1,2010-06-03T12:15:00Z,30.4367,-88.0117,0.5,24.94,2 
DISL,ioos:station:DISL:MBLA:1,2010-06-03T13:03:00Z,30.4367,-88.0117,0.5,24.67,2 
DISL,ioos:station:DISL:MBLA:1,2010-06-03T13:05:00Z,30.4367,-88.0117,0.5,24.83,2 
DISL,ioos:station:DISL:MBLA:1,2010-06-03T13:07:00Z,30.4367,-88.0117,0.5,24.94,2 
DISL,ioos:station:DISL:MBLA:1,2010-06-03T13:10:00Z,30.4367,-88.0117,0.5,24.98,2 
DISL,ioos:station:DISL:MBLA:1,2010-06-03T13:13:00Z,30.4367,-88.0117,0.5,25.04,2 
DISL,ioos:station:DISL:MBLA:1,2010-06-03T13:15:00Z,30.4367,-88.0117,0.5,25.07,2 
DISL,ioos:station:DISL:MBLA:1,2010-06-03T14:03:00Z,30.4367,-88.0117,0.5,24.52,2 
DISL,ioos:station:DISL:MBLA:1,2010-06-03T14:05:00Z,30.4367,-88.0117,0.5,24.74,2 
DISL,ioos:station:DISL:MBLA:1,2010-06-03T14:07:00Z,30.4367,-88.0117,0.5,24.82,2 
DISL,ioos:station:DISL:MBLA:1,2010-06-03T14:10:00Z,30.4367,-88.0117,0.5,24.88,2 
DISL,ioos:station:DISL:MBLA:1,2010-06-03T14:12:00Z,30.4367,-88.0117,0.5,24.91,2 
DISL,ioos:station:DISL:MBLA:1,2010-06-03T14:15:00Z,30.4367,-88.0117,0.5,25.04,2 
DISL,ioos:station:DISL:MBLA:1,2010-06-03T15:03:00Z,30.4367,-88.0117,0.5,24.6,2 
DISL,ioos:station:DISL:MBLA:1,2010-06-03T15:05:00Z,30.4367,-88.0117,0.5,24.89,2 
DISL,ioos:station:DISL:MBLA:1,2010-06-03T15:07:00Z,30.4367,-88.0117,0.5,25.01,2 
DISL,ioos:station:DISL:MBLA:1,2010-06-03T15:10:00Z,30.4367,-88.0117,0.5,25.05,2 
DISL,ioos:station:DISL:MBLA:1,2010-06-03T15:12:00Z,30.4367,-88.0117,0.5,25.06,2 
DISL,ioos:station:DISL:MBLA:1,2010-06-03T15:15:00Z,30.4367,-88.0117,0.5,25.07,2 
DISL,ioos:station:DISL:MBLA:1,2010-06-03T16:03:00Z,30.4367,-88.0117,0.5,24.88,2 
DISL,ioos:station:DISL:MBLA:1,2010-06-03T16:05:00Z,30.4367,-88.0117,0.5,25.02,2 
DISL,ioos:station:DISL:MBLA:1,2010-06-03T16:07:00Z,30.4367,-88.0117,0.5,25.01,2 
DISL,ioos:station:DISL:MBLA:1,2010-06-03T16:10:00Z,30.4367,-88.0117,0.5,24.98,2 
DISL,ioos:station:DISL:MBLA:1,2010-06-03T16:13:00Z,30.4367,-88.0117,0.5,24.96,2 
DISL,ioos:station:DISL:MBLA:1,2010-06-03T16:15:00Z,30.4367,-88.0117,0.5,24.97,2 
DISL,ioos:station:DISL:MBLA:1,2010-06-03T17:03:00Z,30.4367,-88.0117,0.5,25.01,2 
DISL,ioos:station:DISL:MBLA:1,2010-06-03T17:05:00Z,30.4367,-88.0117,0.5,25.05,2 
DISL,ioos:station:DISL:MBLA:1,2010-06-03T17:07:00Z,30.4367,-88.0117,0.5,25.04,2 
DISL,ioos:station:DISL:MBLA:1,2010-06-03T17:10:00Z,30.4367,-88.0117,0.5,25.05,2 
DISL,ioos:station:DISL:MBLA:1,2010-06-03T17:13:00Z,30.4367,-88.0117,0.5,25.08,2 
DISL,ioos:station:DISL:MBLA:1,2010-06-03T17:15:00Z,30.4367,-88.0117,0.5,25.1,2 
DISL,ioos:station:DISL:MBLA:1,2010-06-03T18:03:00Z,30.4367,-88.0117,0.5,25.07,2 
DISL,ioos:station:DISL:MBLA:1,2010-06-03T18:05:00Z,30.4367,-88.0117,0.5,25.16,2 
DISL,ioos:station:DISL:MBLA:1,2010-06-03T18:07:00Z,30.4367,-88.0117,0.5,25.13,2 
DISL,ioos:station:DISL:MBLA:1,2010-06-03T18:10:00Z,30.4367,-88.0117,0.5,25.14,2 
DISL,ioos:station:DISL:MBLA:1,2010-06-03T18:12:00Z,30.4367,-88.0117,0.5,25.13,2 
DISL,ioos:station:DISL:MBLA:1,2010-06-03T18:15:00Z,30.4367,-88.0117,0.5,25.15,2 
DISL,ioos:station:DISL:MBLA:1,2010-06-03T19:03:00Z,30.4367,-88.0117,0.5,24.73,2 
DISL,ioos:station:DISL:MBLA:1,2010-06-03T19:05:00Z,30.4367,-88.0117,0.5,25.0,2 
DISL,ioos:station:DISL:MBLA:1,2010-06-03T19:07:00Z,30.4367,-88.0117,0.5,25.14,2 
DISL,ioos:station:DISL:MBLA:1,2010-06-03T19:10:00Z,30.4367,-88.0117,0.5,25.33,2 
DISL,ioos:station:DISL:MBLA:1,2010-06-03T19:12:00Z,30.4367,-88.0117,0.5,25.43,2 
DISL,ioos:station:DISL:MBLA:1,2010-06-03T19:15:00Z,30.4367,-88.0117,0.5,25.44,2 
DISL,ioos:station:DISL:MBLA:1,2010-06-03T20:03:00Z,30.4367,-88.0117,0.5,24.9,2 
DISL,ioos:station:DISL:MBLA:1,2010-06-03T20:05:00Z,30.4367,-88.0117,0.5,25.01,2 
DISL,ioos:station:DISL:MBLA:1,2010-06-03T20:08:00Z,30.4367,-88.0117,0.5,25.11,2 
DISL,ioos:station:DISL:MBLA:1,2010-06-03T20:10:00Z,30.4367,-88.0117,0.5,25.51,2 
DISL,ioos:station:DISL:MBLA:1,2010-06-03T20:13:00Z,30.4367,-88.0117,0.5,25.69,2 
DISL,ioos:station:DISL:MBLA:1,2010-06-03T20:15:00Z,30.4367,-88.0117,0.5,25.69,2 
DISL,ioos:station:DISL:MBLA:1,2010-06-03T21:03:00Z,30.4367,-88.0117,0.5,24.83,2 
DISL,ioos:station:DISL:MBLA:1,2010-06-03T21:05:00Z,30.4367,-88.0117,0.5,25.32,2 
DISL,ioos:station:DISL:MBLA:1,2010-06-03T21:07:00Z,30.4367,-88.0117,0.5,25.35,2 
DISL,ioos:station:DISL:MBLA:1,2010-06-03T21:10:00Z,30.4367,-88.0117,0.5,25.33,2 
DISL,ioos:station:DISL:MBLA:1,2010-06-03T21:13:00Z,30.4367,-88.0117,0.5,25.69,2 
DISL,ioos:station:DISL:MBLA:1,2010-06-03T21:15:00Z,30.4367,-88.0117,0.5,25.75,2 
DISL,ioos:station:DISL:MBLA:1,2010-06-03T22:03:00Z,30.4367,-88.0117,0.5,24.84,2 
DISL,ioos:station:DISL:MBLA:1,2010-06-03T22:05:00Z,30.4367,-88.0117,0.5,25.38,2 
DISL,ioos:station:DISL:MBLA:1,2010-06-03T22:07:00Z,30.4367,-88.0117,0.5,25.65,2 
DISL,ioos:station:DISL:MBLA:1,2010-06-03T22:10:00Z,30.4367,-88.0117,0.5,25.69,2 
DISL,ioos:station:DISL:MBLA:1,2010-06-03T22:13:00Z,30.4367,-88.0117,0.5,25.64,2 
DISL,ioos:station:DISL:MBLA:1,2010-06-03T22:15:00Z,30.4367,-88.0117,0.5,25.64,2 
DISL,ioos:station:DISL:MBLA:1,2010-06-03T23:03:00Z,30.4367,-88.0117,0.5,24.86,2 
DISL,ioos:station:DISL:MBLA:1,2010-06-03T23:05:00Z,30.4367,-88.0117,0.5,25.44,2 
DISL,ioos:station:DISL:MBLA:1,2010-06-03T23:07:00Z,30.4367,-88.0117,0.5,25.58,2 
DISL,ioos:station:DISL:MBLA:1,2010-06-03T23:10:00Z,30.4367,-88.0117,0.5,25.6,2 
DISL,ioos:station:DISL:MBLA:1,2010-06-03T23:12:00Z,30.4367,-88.0117,0.5,25.6,2 
DISL,ioos:station:DISL:MBLA:1,2010-06-03T23:15:00Z,30.4367,-88.0117,0.5,25.6,2 
DISL,ioos:station:DISL:MBLA:1,2010-06-04T00:03:00Z,30.4367,-88.0117,0.5,24.88,2 
DISL,ioos:station:DISL:MBLA:1,2010-06-04T00:05:00Z,30.4367,-88.0117,0.5,25.48,2 
DISL,ioos:station:DISL:MBLA:1,2010-06-04T00:07:00Z,30.4367,-88.0117,0.5,25.53,2 
DISL,ioos:station:DISL:MBLA:1,2010-06-04T00:10:00Z,30.4367,-88.0117,0.5,25.54,2 
DISL,ioos:station:DISL:MBLA:1,2010-06-04T00:12:00Z,30.4367,-88.0117,0.5,25.56,2 
DISL,ioos:station:DISL:MBLA:1,2010-06-04T00:15:00Z,30.4367,-88.0117,0.5,25.56,2 
DISL,ioos:station:DISL:MBLA:1,2010-06-04T01:03:00Z,30.4367,-88.0117,0.5,25.15,2 